Tracking 30970 objects as of 3-Jul-2025
HD Live streaming from Space Station
objects crossing your sky now

THORAD DELTA 1 DEB

Track THORAD DELTA 1 DEB now!
10-day predictions


NORAD ID: 8307
Int'l Code: 1974-089BQ
Perigee: 1,430.2 km
Apogee: 2,171.6 km
Inclination: 101.2 °
Period: 122.5 minutes
Semi major axis: 8171 km
RCS: 0.1335 m2 (medium)
Launch date: November 15, 1974
Source: United States (US)
Launch site: AIR FORCE WESTERN TEST RANGE (AFWTR)

Note: This is SATELLITE DEBRIS
Your satellite tracking list
GLOBAL-2
Track 1 satellite(s)




NASA's NSSDC Master Catalog

Two Line Element Set (TLE):
1 08307U 74089BQ  25183.78416419  .00000143  00000-0  22412-2 0  9996
2 08307 101.1815 291.8575 0453617 173.5891 341.5331 11.75222904172254
Source of the keplerian elements: AFSPC